Flag for Canada Weather past 2 weeks in Dryden, Ontario, Canada

Now
73 °F

Partly sunny.


Feels Like: 76 °F
Forecast: 50 / 82 °F
Wind: 9 mph from South

Location: Dryden Airport

Current Time: Aug 20, 2014 at 2:14:18 PM

Latest Report: Aug 20, 2014 at 1:00 PM


Visibility: 9 mi

Pressure: 29.89 "Hg

Humidity: 61%

Dew point: 59 °F

Location of DrydenLocation

Historic Weather in Dryden — Graph

°F

Dryden temperature yesterday

Maximum temperature yesterday: 70 °F (at 6:00 PM)
Minimum temperature yesterday: 59 °F (at 6:55 AM)
Average temperature yesterday: 63 °F

Past Weeks' High & Low Weather Summary

 TemperatureHumidityPressure
High84 °F (Aug 15, 4:00 PM)100% (Aug 6, 5:00 AM)30.20 "Hg (Aug 6, 5:00 AM)
Low48 °F (Aug 14, 4:53 AM)30% (Aug 6, 6:00 PM)29.72 "Hg (Aug 19, 2:00 AM)
Average65 °F73%30.01 "Hg
* Reported Aug 5 12:00 Noon — Aug 20 12:00 Noon, Dryden, Weather by CustomWeather, © 2014

Note: Actual official high and low records may vary slightly from our data, if they occured in-between our weather recording intervals... More about our weather records

Advertising

Dryden weather history for previous 24 hours

 ConditionsComfort  
Time TempWeatherWind HumidityBarometerVisibility
12:00 PM
Aug 20
70 °FMostly cloudy.5 mph73%29.91 "Hg9 mi
11:00 AM70 °FPassing clouds.5 mph69%29.91 "Hg9 mi
10:00 AM66 °FSunny.3 mph83%29.93 "Hg9 mi
9:00 AM63 °FSunny.5 mph94%29.91 "Hg9 mi
8:00 AM59 °FFog.2 mph100%29.91 "Hg0 mi
7:00 AM55 °FFog.2 mph100%29.91 "Hg0 mi
6:04 AM57 °FFog.2 mph100%29.88 "Hg3 mi
5:46 AM59 °FClear.No wind100%29.87 "Hg9 mi
5:00 AM57 °FFog.2 mph100%29.86 "Hg1 mi
4:00 AM59 °FFog.No wind94%29.87 "Hg1 mi
3:04 AM59 °FFog.No wind94%29.87 "Hg2 mi
2:00 AM59 °FClear.3 mph94%29.87 "Hg9 mi
1:00 AM59 °FClear.3 mph94%29.85 "Hg8 mi
12:03 AM59 °FClear.No wind100%29.84 "Hg7 mi
11:53 PM
Aug 19
59 °FFog.No wind100%29.84 "Hg5 mi
11:00 PM63 °FClear.No wind88%29.83 "Hg9 mi
10:00 PM63 °FClear.5 mph88%29.83 "Hg9 mi
9:00 PM64 °FSunny.6 mph83%29.83 "Hg9 mi
8:00 PM66 °FSunny.5 mph83%29.81 "Hg9 mi
7:00 PM68 °FSunny.6 mph78%29.80 "Hg9 mi
6:00 PM70 °FSunny.3 mph73%29.80 "Hg9 mi
5:00 PM68 °FBroken clouds.3 mph78%29.80 "Hg9 mi
4:00 PM66 °FMore clouds than sun.2 mph83%29.80 "Hg9 mi
3:00 PM66 °FOvercast.5 mph78%29.80 "Hg9 mi
2:00 PM64 °FMostly cloudy.2 mph83%29.80 "Hg9 mi
Weather by CustomWeather, © 2014

See weather overviewHow to use our weather pages